Location: Hilton Head Island
(32.2163°N, 80.7526°W)
Time: 18:51:24
(UTC-04:00)

A-11 Canister half - Pass Details

Date: 18 February 2026
Orbit: 1525 x 1683 km, 47.3° (Epoch: 10 March)

Event Time Altitude Azimuth Distance (km) Brightness Sun altitude
Rises 22:10:21 0° 308° (NW) 4,675 12.1 -50.4°
Reaches altitude 10° 22:13:27 10° 311° (NW) 3,693 11.4 -51.0°
Enters shadow 22:17:14 28° 320° (NW) 2,578 10.4 -51.7°
